Seldovia, AK

3:21 AM AKDT on June 28, 2017 (GMT -0800)
Seldovia

Weather History for PASO - February, 2013

Change the Weather History Date:

Wednesday, February 13, 2013

  Actual Average (PAHO) Record (PAHO)
Temperature  
Mean Temperature 31 °F -  
Max Temperature 36 °F 31 °F 47 °F (1970)
Min Temperature 26 °F 18 °F -9 °F (1956)
Degree Days  
Heating Degree Days 34    
Moisture  
Dew Point 29 °F    
Average Humidity 92    
Maximum Humidity 100    
Minimum Humidity 82    
Precipitation  
Precipitation 0.10 in - - ()
Sea Level Pressure  
Sea Level Pressure 29.68 in    
Wind  
Wind Speed 1 mph (ENE)    
Max Wind Speed 9 mph    
Max Gust Speed 17 mph    
Visibility 6 miles    
Events Snow    
Averages and records for this station are not official NWS values.
T = Trace of Precipitation, MM = Missing Value Source: NWS Daily Summary

Daily Weather History Graph

Daily Weather History Graph

Search for Another Location

Airport or City:

Trip Planner

Search our weather history database for the weather conditions in past years. The results will help you decide how hot, cold, wet, or windy it might be!

Date:

Astronomy

Feb. 13, 2013 Rise Set
Actual Time 8:46 AM AKST 5:56 PM AKST
Civil Twilight 8:03 AM AKST 6:39 PM AKST
Nautical Twilight 7:15 AM AKST 7:27 PM AKST
Astronomical Twilight 6:28 AM AKST 8:15 PM AKST
Moon 9:13 AM AKST (2/13) 11:27 PM AKST (2/13)
Length of Visible Light 10h 36m
Length of Day
9h 09m
Waxing Crescent, 15% of the Moon is Illuminated
Feb 13
Waxing Crescent
Feb 17
First Quarter
Feb 25
Full
Mar 4
Last Quarter
Mar 11
New

Hourly Weather History & Observations

Time (AKST) Temp. Windchill Dew Point Humidity Pressure Visibility Wind Dir Wind Speed Gust Speed Precip Events Conditions
12:53 AM 32.0 °F - 30.0 °F 92% 29.74 in 10.0 mi Calm Calm - N/A   Overcast
1:35 AM 32.0 °F - 30.2 °F 93% 29.75 in 2.0 mi Calm Calm - 0.01 in Snow Light Snow
1:50 AM 32.0 °F - 30.2 °F 93% 29.75 in 1.0 mi Calm Calm - 0.02 in Snow Light Snow
1:53 AM 32.0 °F - 30.0 °F 92% 29.75 in 1.0 mi Calm Calm - 0.02 in Snow Light Snow
2:10 AM 30.2 °F - 30.2 °F 100% 29.75 in 3.0 mi Calm Calm - 0.00 in Snow Light Snow
2:18 AM 30.2 °F - 28.4 °F 93% 29.76 in 4.0 mi Calm Calm - 0.00 in   Overcast
2:35 AM 30.2 °F - 28.4 °F 93% 29.76 in 6.0 mi Calm Calm - 0.00 in   Overcast
3:01 AM 28.4 °F - 26.6 °F 93% 29.76 in 4.0 mi Calm Calm - N/A   Scattered Clouds
3:08 AM 28.4 °F - 26.6 °F 93% 29.76 in 1.8 mi Calm Calm - N/A   Mostly Cloudy
3:16 AM 28.4 °F - 26.6 °F 93% 29.76 in 1.2 mi Calm Calm - N/A   Scattered Clouds
3:20 AM 28.4 °F - 26.6 °F 93% 29.76 in 4.0 mi Calm Calm - N/A   Scattered Clouds
3:51 AM 28.4 °F - 26.6 °F 93% 29.76 in 2.5 mi Calm Calm - N/A   Partly Cloudy
3:53 AM 28.9 °F - 26.1 °F 89% 29.77 in 2.5 mi Calm Calm - N/A   Partly Cloudy
4:00 AM 28.4 °F - 26.6 °F 93% 29.77 in 10.0 mi Calm Calm - N/A   Partly Cloudy
4:41 AM 26.6 °F - 24.8 °F 93% 29.77 in 10.0 mi Calm Calm - N/A   Partly Cloudy
4:53 AM 26.1 °F - 24.1 °F 92% 29.78 in 10.0 mi Calm Calm - N/A   Partly Cloudy
5:53 AM 26.1 °F - 24.1 °F 92% 29.77 in 10.0 mi Calm Calm - N/A   Clear
6:53 AM 27.0 °F - 24.1 °F 89% 29.77 in 10.0 mi Calm Calm - N/A   Clear
7:53 AM 26.1 °F - 24.1 °F 92% 29.76 in 10.0 mi Calm Calm - N/A   Scattered Clouds
8:53 AM 28.0 °F - 26.1 °F 92% 29.75 in 8.0 mi Calm Calm - 0.00 in Snow Light Snow
9:53 AM 28.9 °F - 28.0 °F 96% 29.74 in 10.0 mi Calm Calm - 0.01 in   Overcast
10:19 AM 30.2 °F - 28.4 °F 93% 29.75 in 2.5 mi Calm Calm - 0.00 in Snow Light Snow
10:25 AM 30.2 °F - 28.4 °F 93% 29.75 in 3.0 mi Calm Calm - 0.00 in Snow Light Snow
10:30 AM 30.2 °F - 28.4 °F 93% 29.74 in 1.5 mi Calm Calm - 0.00 in Snow Light Snow
10:43 AM 30.2 °F - 28.4 °F 93% 29.74 in 3.0 mi Calm Calm - 0.01 in Snow Light Snow
10:53 AM 30.9 °F - 30.0 °F 96% 29.74 in 9.0 mi Calm Calm - 0.01 in   Mostly Cloudy
11:53 AM 34.0 °F - 30.9 °F 89% 29.72 in 10.0 mi Calm Calm - N/A   Mostly Cloudy
12:53 PM 35.1 °F - 30.9 °F 85% 29.72 in 10.0 mi Calm Calm - N/A   Mostly Cloudy
1:53 PM 36.0 °F 30.3 °F 30.9 °F 82% 29.69 in 7.0 mi NE 6.9 mph - 0.00 in   Mostly Cloudy
2:53 PM 35.1 °F 32.2 °F 32.0 °F 89% 29.66 in 10.0 mi South 3.5 mph - 0.00 in   Overcast
3:53 PM 35.1 °F 30.1 °F 32.0 °F 89% 29.63 in 10.0 mi South 5.8 mph - N/A   Overcast
4:53 PM 35.1 °F - 32.0 °F 89% 29.60 in 10.0 mi Calm Calm - 0.00 in   Overcast
5:25 PM 33.8 °F - 33.8 °F 100% 29.59 in 4.0 mi Calm Calm - 0.00 in Snow Light Snow
5:40 PM 33.8 °F - 32.0 °F 93% 29.59 in 2.5 mi Calm Calm - 0.00 in Snow Light Snow
5:48 PM 33.8 °F 27.0 °F 32.0 °F 93% 29.58 in 4.0 mi North 8.1 mph - 0.01 in Snow Light Snow
5:53 PM 34.0 °F 26.6 °F 32.0 °F 92% 29.58 in 3.0 mi North 9.2 mph - 0.01 in Snow Light Snow
6:53 PM 33.1 °F 28.7 °F 32.0 °F 96% 29.56 in 5.0 mi North 4.6 mph - 0.02 in Snow Light Snow
7:15 PM 33.8 °F - 32.0 °F 93% 29.55 in 2.5 mi Calm Calm - 0.01 in Snow Light Snow
7:53 PM 33.1 °F - 32.0 °F 96% 29.54 in 3.0 mi Calm Calm - 0.02 in Snow Light Snow
8:24 PM 33.8 °F - 32.0 °F 93% 29.53 in 5.0 mi Calm Calm - 0.01 in Snow Light Snow
8:35 PM 33.8 °F 30.8 °F 32.0 °F 93% 29.52 in 7.0 mi Variable 3.5 mph - 0.01 in Snow Light Snow
8:53 PM 33.1 °F - 32.0 °F 96% 29.51 in 9.0 mi Calm Calm - 0.01 in   Overcast
9:53 PM 33.1 °F - 32.0 °F 96% 29.49 in 10.0 mi Calm Calm - 0.00 in   Overcast
10:53 PM 35.1 °F - 32.0 °F 89% 29.49 in 10.0 mi Calm Calm - N/A   Overcast
11:53 PM 36.0 °F 29.6 °F 30.9 °F 82% 29.50 in 10.0 mi SE 8.1 mph 17.3 mph N/A   Clear